When you browse on this site, cookies collect data to enhance your experience and personalize the content and advertising you see.
Visit our Privacy Policy to learn more. By continuing to use the site, you agree to this use of cookies and data.
  • în România
  • Lista ţărilor
  • Pe 7 zile
  • Temperatura apei
  • Meteo pe hartă
  • Widget-uri
  • user-avatar
    Intrare

    Meteo pe oră la Radomsko

    Astăzi, 21 August, Miercuri

    Timp Temperatura Precipitaţii Vânt Presiune Umiditate
    00:00 +20°C° 0.5 mm 3 m/s 744 mmHg 89%
    01:00 +20°C° 0 mm 3 m/s 743 mmHg 95%
    02:00 +19°C° 0.4 mm 3 m/s 743 mmHg 96%
    03:00 +19°C° 0.4 mm 3 m/s 744 mmHg 96%
    04:00 +19°C° 0.4 mm 3 m/s 744 mmHg 96%
    05:00 +18°C° 0.2 mm 4 m/s 744 mmHg 95%
    06:00 +18°C° 0.2 mm 4 m/s 745 mmHg 93%
    07:00 +16°C° 0.2 mm 5 m/s 746 mmHg 92%
    08:00 +16°C° 0 mm 5 m/s 746 mmHg 88%
    09:00 +16°C° 0 mm 5 m/s 747 mmHg 85%
    10:00 +16°C° 0 mm 5 m/s 748 mmHg 81%
    11:00 +16°C° 0 mm 5 m/s 748 mmHg 80%
    12:00 +17°C° 0 mm 4 m/s 749 mmHg 79%
    13:00 +18°C° 0 mm 4 m/s 749 mmHg 77%
    14:00 +18°C° 0 mm 3 m/s 749 mmHg 74%
    15:00 +19°C° 0 mm 3 m/s 749 mmHg 70%
    16:00 +20°C° 0 mm 3 m/s 749 mmHg 67%
    17:00 +19°C° 0 mm 3 m/s 749 mmHg 71%
    18:00 +18°C° 0 mm 2 m/s 750 mmHg 75%
    19:00 +17°C° 0 mm 2 m/s 750 mmHg 78%
    20:00 +16°C° 0 mm 1 m/s 750 mmHg 81%
    21:00 +16°C° 0 mm 1 m/s 750 mmHg 84%
    22:00 +15°C° 0 mm 1 m/s 750 mmHg 87%
    23:00 +15°C° 0 mm 1 m/s 750 mmHg 88%

    Mâine, 22 August, Joi

    Timp Temperatura Precipitaţii Vânt Presiune Umiditate
    00:00 +15°C° 0 mm 1 m/s 751 mmHg 90%
    01:00 +14°C° 0 mm 1 m/s 751 mmHg 91%
    02:00 +14°C° 0 mm 1 m/s 751 mmHg 92%
    03:00 +14°C° 0 mm 1 m/s 750 mmHg 93%
    04:00 +13°C° 0 mm 1 m/s 750 mmHg 93%
    05:00 +14°C° 0 mm 1 m/s 750 mmHg 90%
    06:00 +15°C° 0 mm 1 m/s 751 mmHg 86%
    07:00 +16°C° 0 mm 2 m/s 751 mmHg 82%
    08:00 +18°C° 0 mm 2 m/s 751 mmHg 75%
    09:00 +19°C° 0 mm 3 m/s 751 mmHg 67%
    10:00 +21°C° 0 mm 3 m/s 751 mmHg 60%
    11:00 +21°C° 0 mm 4 m/s 751 mmHg 57%
    12:00 +22°C° 0 mm 4 m/s 751 mmHg 53%
    13:00 +23°C° 0 mm 4 m/s 750 mmHg 50%
    14:00 +22°C° 0 mm 4 m/s 750 mmHg 51%
    15:00 +22°C° 0 mm 4 m/s 750 mmHg 52%
    16:00 +22°C° 0 mm 4 m/s 750 mmHg 53%
    17:00 +21°C° 0 mm 3 m/s 749 mmHg 58%
    18:00 +20°C° 0 mm 3 m/s 749 mmHg 62%
    19:00 +19°C° 0 mm 2 m/s 749 mmHg 67%
    20:00 +18°C° 0 mm 2 m/s 749 mmHg 70%
    21:00 +17°C° 0 mm 2 m/s 750 mmHg 72%
    22:00 +17°C° 0 mm 3 m/s 750 mmHg 75%
    23:00 +16°C° 0 mm 3 m/s 750 mmHg 76%

    Poimâine, 23 August, Vineri

    Timp Temperatura Precipitaţii Vânt Presiune Umiditate
    00:00 +16°C° 0 mm 3 m/s 750 mmHg 78%
    01:00 +14°C° 0 mm 3 m/s 750 mmHg 80%
    02:00 +14°C° 0 mm 3 m/s 750 mmHg 82%
    03:00 +14°C° 0 mm 3 m/s 749 mmHg 83%
    04:00 +14°C° 0 mm 2 m/s 749 mmHg 85%
    05:00 +14°C° 0 mm 3 m/s 749 mmHg 82%
    06:00 +17°C° 0 mm 3 m/s 750 mmHg 79%
    07:00 +18°C° 0 mm 3 m/s 750 mmHg 76%
    08:00 +19°C° 0 mm 4 m/s 750 mmHg 69%
    09:00 +21°C° 0 mm 4 m/s 750 mmHg 63%
    10:00 +23°C° 0 mm 4 m/s 750 mmHg 57%
    11:00 +25°C° 0 mm 4 m/s 749 mmHg 54%
    12:00 +26°C° 0 mm 4 m/s 749 mmHg 51%
    13:00 +27°C° 0 mm 4 m/s 749 mmHg 49%
    14:00 +26°C° 0 mm 4 m/s 749 mmHg 50%
    15:00 +26°C° 0 mm 5 m/s 748 mmHg 51%
    16:00 +26°C° 0 mm 5 m/s 748 mmHg 52%
    17:00 +25°C° 0 mm 4 m/s 748 mmHg 57%
    18:00 +22°C° 0 mm 4 m/s 748 mmHg 63%
    19:00 +21°C° 0 mm 3 m/s 748 mmHg 68%
    20:00 +20°C° 0 mm 3 m/s 748 mmHg 70%
    21:00 +19°C° 0 mm 3 m/s 748 mmHg 71%
    22:00 +18°C° 0 mm 4 m/s 748 mmHg 73%
    23:00 +18°C° 0 mm 3 m/s 748 mmHg 75%

    24 August, Sâmbătă

    Timp Temperatura Precipitaţii Vânt Presiune Umiditate
    00:00 +17°C° 0 mm 3 m/s 748 mmHg 77%
    01:00 +17°C° 0 mm 3 m/s 747 mmHg 79%
    02:00 +16°C° 0 mm 3 m/s 747 mmHg 80%
    03:00 +16°C° 0 mm 3 m/s 747 mmHg 81%
    04:00 +16°C° 0 mm 3 m/s 747 mmHg 83%
    05:00 +17°C° 0 mm 4 m/s 747 mmHg 79%
    06:00 +17°C° 0 mm 4 m/s 747 mmHg 75%
    07:00 +18°C° 0 mm 4 m/s 747 mmHg 71%
    08:00 +20°C° 0 mm 4 m/s 747 mmHg 66%
    09:00 +22°C° 0 mm 4 m/s 747 mmHg 61%
    10:00 +25°C° 0 mm 5 m/s 747 mmHg 56%
    11:00 +26°C° 0 mm 5 m/s 747 mmHg 54%
    12:00 +26°C° 0 mm 4 m/s 747 mmHg 53%
    13:00 +27°C° 0 mm 4 m/s 746 mmHg 51%
    14:00 +27°C° 0 mm 4 m/s 746 mmHg 52%
    15:00 +27°C° 0 mm 4 m/s 746 mmHg 53%
    16:00 +27°C° 0 mm 4 m/s 746 mmHg 54%
    17:00 +25°C° 0 mm 3 m/s 745 mmHg 60%
    18:00 +24°C° 0 mm 3 m/s 745 mmHg 66%
    19:00 +22°C° 0 mm 3 m/s 745 mmHg 72%
    20:00 +21°C° 0 mm 3 m/s 745 mmHg 76%
    21:00 +20°C° 0 mm 3 m/s 746 mmHg 79%
    22:00 +20°C° 0 mm 3 m/s 746 mmHg 82%
    23:00 +19°C° 0 mm 3 m/s 746 mmHg 83%

    25 August, Duminică

    Timp Temperatura Precipitaţii Vânt Presiune Umiditate
    00:00 +19°C° 0 mm 3 m/s 745 mmHg 85%
    01:00 +18°C° 0 mm 3 m/s 745 mmHg 86%
    02:00 +18°C° 0 mm 3 m/s 745 mmHg 86%
    03:00 +17°C° 0 mm 3 m/s 745 mmHg 87%
    04:00 +17°C° 0 mm 3 m/s 745 mmHg 87%
    05:00 +18°C° 0 mm 3 m/s 745 mmHg 84%
    06:00 +19°C° 0 mm 3 m/s 745 mmHg 80%
    07:00 +19°C° 0 mm 3 m/s 745 mmHg 77%
    08:00 +21°C° 0 mm 4 m/s 745 mmHg 71%
    09:00 +23°C° 0 mm 4 m/s 745 mmHg 66%
    10:00 +26°C° 0 mm 4 m/s 746 mmHg 61%
    11:00 +27°C° 0 mm 4 m/s 745 mmHg 57%
    12:00 +28°C° 0 mm 4 m/s 745 mmHg 54%
    13:00 +29°C° 0 mm 4 m/s 745 mmHg 51%
    14:00 +29°C° 0 mm 4 m/s 745 mmHg 52%
    15:00 +29°C° 0 mm 4 m/s 745 mmHg 53%
    16:00 +29°C° 0 mm 4 m/s 745 mmHg 54%
    17:00 +27°C° 0 mm 4 m/s 745 mmHg 60%
    18:00 +26°C° 0 mm 4 m/s 745 mmHg 66%
    19:00 +24°C° 0 mm 3 m/s 745 mmHg 72%
    20:00 +23°C° 0 mm 4 m/s 745 mmHg 74%
    21:00 +22°C° 0 mm 4 m/s 745 mmHg 76%
    22:00 +21°C° 0 mm 4 m/s 745 mmHg 78%
    23:00 +21°C° 0 mm 4 m/s 745 mmHg 81%

    26 August, Luni

    Timp Temperatura Precipitaţii Vânt Presiune Umiditate
    00:00 +20°C° 0 mm 3 m/s 745 mmHg 84%
    01:00 +20°C° 0 mm 3 m/s 744 mmHg 87%
    02:00 +19°C° 0 mm 3 m/s 744 mmHg 89%
    03:00 +19°C° 0 mm 3 m/s 744 mmHg 91%
    04:00 +18°C° 0 mm 3 m/s 743 mmHg 93%
    05:00 +19°C° 0 mm 3 m/s 743 mmHg 89%
    06:00 +20°C° 0 mm 3 m/s 743 mmHg 85%
    07:00 +21°C° 0 mm 3 m/s 744 mmHg 81%
    08:00 +24°C° 0 mm 3 m/s 744 mmHg 74%
    09:00 +26°C° 0 mm 3 m/s 744 mmHg 66%
    10:00 +28°C° 0 mm 3 m/s 744 mmHg 59%
    11:00 +29°C° 0 mm 3 m/s 743 mmHg 54%
    12:00 +30°C° 0 mm 3 m/s 743 mmHg 49%
    13:00 +31°C° 0 mm 2 m/s 743 mmHg 44%
    14:00 +31°C° 0 mm 2 m/s 743 mmHg 44%
    15:00 +32°C° 0 mm 2 m/s 742 mmHg 43%
    16:00 +32°C° 0 mm 2 m/s 742 mmHg 42%
    17:00 +30°C° 0 mm 2 m/s 742 mmHg 49%
    18:00 +28°C° 0 mm 3 m/s 742 mmHg 56%
    19:00 +27°C° 0 mm 3 m/s 742 mmHg 62%
    20:00 +26°C° 0.2 mm 3 m/s 742 mmHg 65%
    21:00 +25°C° 0.2 mm 3 m/s 742 mmHg 68%
    22:00 +24°C° 0.2 mm 3 m/s 742 mmHg 71%
    23:00 +22°C° 0.8 mm 3 m/s 742 mmHg 72%
    Arată mai mult